EHI
2 7 13 16 17 19 26 35 43 51 55 55 53 50 44 37 32 27 24 21 16 10 7 7 6 6 6 4 1 0 0 0 0 0 0 0 0 0 0 0 0 0 0
5 9 15 18 19 22 27 33 40 45 49 50 49 46 40 36 32 28 25 21 17 12 8 6 5 5 4 2 1 0 0 0 0 0 0 0 0 0 0 0 0 0 0
9 11 15 19 23 26 31 34 36 38 40 41 42 40 36 32 30 28 25 21 17 14 10 6 4 3 2 1 0 0 0 0 0 0 0 0 0 1 1 1 0 0 0
11 10 14 22 28 32 35 36 36 35 34 34 35 34 31 28 26 24 22 19 17 15 12 6 3 2 2 1 0 0 0 0 0 0 0 0 0 1 2 2 1 0 0
12 10 16 28 36 38 38 37 37 35 31 29 30 30 28 24 22 20 18 16 14 12 10 5 2 1 1 1 0 0 0 0 0 0 0 0 0 1 1 2 2 0 0
13 13 20 32 39 39 39 38 37 35 30 27 27 27 24 20 17 15 13 12 11 9 6 4 1 0 0 0 0 0 0 0 0 0 0 0 0 0 2 3 2 0 0
18 17 24 35 41 40 39 39 38 34 30 27 26 24 20 14 10 9 9 9 8 6 4 2 0 0 0 0 0 0 0 0 0 0 0 0 0 1 3 5 4 2 1
24 25 28 36 41 40 39 40 39 35 32 27 24 22 16 10 6 6 7 8 6 3 1 0 0 0 0 0 0 0 0 0 0 0 0 1 3 4 5 5 5 3 2
29 30 31 34 37 37 36 38 38 36 31 25 21 19 15 9 6 6 6 6 4 2 1 0 0 0 0 0 0 0 0 0 0 0 0 2 5 7 6 4 5 4 3
27 29 30 30 30 29 29 32 35 33 28 22 18 16 14 10 6 6 6 4 3 3 2 1 1 0 0 0 0 0 0 1 1 1 1 1 3 5 5 4 4 5 4
23 24 24 24 23 22 23 25 28 26 22 18 15 14 12 8 6 5 4 3 2 2 2 2 2 1 0 0 0 0 0 1 2 2 2 1 0 1 2 3 4 4 5
18 18 17 18 19 20 21 22 22 19 15 12 11 11 9 6 4 2 1 1 1 1 1 1 1 1 0 0 0 0 0 1 2 3 2 1 0 0 0 2 3 3 4
17 16 15 16 17 18 19 20 18 14 11 10 10 9 7 4 2 1 0 0 0 0 0 0 0 0 0 0 0 0 0 0 1 2 2 1 1 1 0 1 1 2 3
18 16 16 16 16 16 16 17 17 14 11 10 10 9 6 3 1 0 0 0 0 0 0 0 0 0 0 0 0 0 0 0 0 1 2 1 1 1 0 0 1 1 1
15 15 16 17 16 16 15 15 16 14 11 9 9 8 5 2 0 0 0 0 0 0 0 0 0 0 0 0 0 0 0 0 0 1 1 1 1 1 0 0 1 1 1
12 13 15 16 16 16 15 14 14 13 11 9 7 5 3 1 0 0 0 0 0 0 0 0 0 0 0 0 0 0 0 0 0 0 0 0 0 0 0 1 2 1 1
12 13 14 15 15 15 14 13 13 12 10 8 5 2 1 0 0 0 0 0 0 0 0 0 0 0 0 0 0 0 0 0 0 0 0 0 0 0 0 1 1 1 0
14 13 13 14 15 15 14 13 12 11 9 7 3 1 0 0 0 0 0 0 0 0 0 0 0 0 0 0 0 0 0 0 0 0 0 0 0 0 0 0 1 1 0
19 16 14 14 15 15 14 13 11 10 8 5 2 0 0 0 0 0 0 0 0 0 0 0 0 0 0 0 0 0 0 0 0 0 0 0 0 0 0 0 0 1 1
22 20 17 17 17 17 16 14 12 10 7 4 1 0 0 0 0 0 0 0 0 0 0 0 0 0 0 0 0 0 0 0 0 0 0 0 0 0 0 0 0 0 0
24 22 20 19 20 20 19 18 16 12 8 5 3 1 1 0 0 0 0 0 0 0 0 0 0 0 0 0 0 0 0 0 0 0 0 0 0 0 0 0 0 0 0
25 24 22 21 21 21 21 19 18 14 9 6 5 3 2 1 2 2 2 1 1 1 0 0 0 0 0 0 0 0 0 0 0 0 0 0 0 0 0 0 0 0 0
22 22 21 20 20 20 19 18 16 13 9 8 7 5 3 2 3 3 3 3 2 2 1 0 0 0 0 0 0 0 0 0 0 0 0 0 0 0 0 0 0 0 0
16 17 17 18 19 18 17 15 13 11 10 9 8 6 4 3 3 3 3 3 3 3 2 1 0 0 0 0 0 0 0 0 0 0 0 0 0 0 0 0 0 0 0
13 14 15 16 16 16 15 15 12 10 10 8 6 6 4 4 3 3 3 3 3 3 3 2 1 0 0 0 0 0 0 0 0 0 0 0 0 0 0 0 0 0 0
13 14 14 14 13 13 14 14 12 9 8 6 4 4 4 4 4 3 3 3 3 3 3 3 2 1 0 0 0 0 0 0 0 0 0 0 0 0 0 0 0 0 0
Wind_Speed
6 8 13 13 14 14 14 14 15 15 15 15 15 15 14 14 13 13 12 11 10 9 9 8 7 7 7 7 7 7 7 6 6 6 6 6 6 6 6 7 7 6 8
9 10 14 14 14 14 14 14 15 15 15 14 14 14 14 13 12 12 11 10 9 9 8 8 7 6 6 6 6 6 6 5 5 4 5 5 5 5 6 6 7 5 8
11 10 12 14 14 14 14 14 14 14 14 14 13 13 12 12 11 11 10 9 8 7 7 7 6 6 5 5 5 4 4 4 4 3 3 2 3 5 6 7 7 8 8
12 9 10 14 14 14 14 13 14 14 13 13 12 12 11 11 10 9 9 8 7 7 6 6 5 5 4 4 3 3 3 3 3 3 2 1 2 5 6 7 7 8 8
10 8 10 15 14 14 13 13 13 13 13 12 12 11 10 10 9 8 8 7 6 6 6 5 5 4 4 3 2 2 2 2 2 2 2 1 1 4 6 7 7 8 8
9 8 10 15 14 14 13 13 12 12 12 11 11 10 9 9 8 7 7 6 5 5 5 4 4 3 3 2 2 1 2 2 2 1 2 2 2 4 6 7 8 8 9
9 7 9 13 13 13 13 12 12 11 11 10 10 9 8 7 6 6 6 5 4 4 4 3 3 3 2 2 1 2 2 2 2 2 2 2 3 6 7 7 8 9 9
9 7 7 12 13 12 12 12 11 10 9 9 8 7 7 6 5 5 5 4 3 3 3 3 2 2 1 1 1 1 2 2 1 1 2 3 4 6 8 8 8 9 10
7 7 5 6 8 10 10 10 10 9 9 8 7 7 6 5 5 4 3 3 3 2 2 2 2 2 2 2 2 2 2 2 1 1 2 2 4 5 7 8 8 8 9
6 5 5 5 5 4 5 8 9 9 8 7 7 6 6 5 4 3 2 2 2 2 2 2 2 2 2 3 3 2 2 1 1 2 2 3 5 6 7 8 8 8 8
6 5 5 5 4 4 4 6 6 7 6 5 4 5 4 1 1 1 1 1 2 2 2 2 2 3 3 3 4 3 2 1 2 2 2 5 6 7 7 8 9 9 9
8 7 5 5 4 4 4 3 2 3 3 2 2 2 2 1 1 1 1 1 2 2 3 3 3 3 2 1 3 3 1 2 2 2 3 6 7 7 7 7 8 9 9
8 7 6 5 4 4 3 3 2 2 2 2 2 2 2 1 1 1 1 1 2 2 2 2 2 2 1 1 1 1 2 2 2 2 3 6 6 7 7 8 8 9 9
8 8 6 5 5 4 3 2 2 2 2 1 2 2 2 1 0 0 0 0 0 1 1 1 1 2 2 2 2 3 3 2 2 2 3 6 7 7 8 8 8 8 8
7 7 6 6 6 5 4 3 3 2 2 2 2 2 2 2 1 1 0 0 1 1 1 1 1 2 2 2 2 3 3 4 3 3 2 5 6 7 8 8 9 9 9
7 7 6 6 6 5 4 3 3 3 2 2 2 2 3 2 2 1 1 1 1 1 1 1 2 2 2 2 3 3 3 3 3 3 3 4 6 7 8 8 8 8 9
7 6 6 6 6 5 4 4 2 2 2 2 2 2 2 2 2 2 1 1 1 1 1 1 1 1 1 2 3 3 3 3 3 3 3 2 3 6 7 7 7 7 8
6 6 5 6 6 5 4 3 2 2 2 2 1 1 2 2 2 2 1 1 1 0 0 1 1 1 2 2 2 3 2 2 3 3 2 2 2 3 4 6 6 6 7
6 6 6 5 6 5 4 3 2 2 2 1 1 1 1 1 2 2 1 1 0 0 0 1 1 1 2 3 3 2 2 2 3 3 2 2 2 2 2 4 5 5 5
5 4 4 4 5 5 3 2 2 1 1 1 1 1 1 1 1 1 1 0 0 0 1 1 1 1 1 2 3 2 2 2 2 2 2 2 2 2 2 3 2 3 4
5 5 5 5 4 4 3 3 3 2 1 0 0 0 1 1 1 1 1 0 0 0 0 1 1 1 2 1 1 2 2 2 2 1 1 1 2 2 2 2 2 2 2
6 6 5 5 5 4 4 3 2 2 2 1 0 0 1 1 1 1 1 0 0 1 1 1 1 1 1 1 1 1 2 3 2 2 1 1 2 2 2 2 2 2 2
5 6 5 5 4 4 4 3 2 2 2 1 1 0 0 0 1 1 1 1 0 1 0 0 1 1 0 1 0 1 0 2 2 2 2 2 2 2 2 2 2 2 2
4 4 4 4 4 3 4 4 4 3 2 2 1 1 0 0 0 0 1 1 1 0 0 0 1 1 1 1 1 0 1 2 1 2 2 2 2 2 2 3 3 3 2
4 4 3 4 4 3 4 4 4 3 2 1 1 1 0 1 1 0 1 1 0 0 0 0 1 1 1 1 1 0 0 1 2 2 3 3 3 2 2 2 2 2 2
4 4 4 4 3 2 3 3 4 4 3 2 1 1 0 0 0 0 1 1 0 0 0 0 0 0 0 0 1 1 1 1 1 2 2 3 3 3 3 2 2 2 2
Wind_Direction
162 159 157 151 145 138 131 124 121 118 116 116 118 121 124 125 127 130 131 133 133 131 126 121 116 112 110 109 108 109 110 112 120 127 133 140 142 146 150 149 145 143 144
152 155 155 152 146 140 133 127 124 121 119 119 120 122 124 127 128 129 130 131 133 133 131 127 123 120 117 115 116 118 121 125 132 140 144 144 152 160 162 160 160 157 154
143 150 152 152 147 141 135 130 127 125 123 122 123 124 125 127 128 130 132 133 134 133 132 130 129 125 122 120 123 126 128 133 142 149 134 123 166 177 177 170 169 168 166
143 145 150 150 147 142 137 133 131 129 128 128 128 128 129 130 130 132 134 137 137 136 133 130 127 125 124 126 130 134 138 140 152 152 126 155 194 185 184 180 176 176 174
139 142 152 151 148 144 141 138 136 134 134 133 132 131 131 131 131 133 136 139 141 141 138 136 134 131 130 133 142 150 158 166 178 156 157 177 208 211 200 193 187 181 180
139 142 153 152 151 148 145 142 141 139 138 138 136 136 136 135 135 138 143 144 146 146 145 145 145 142 143 150 167 186 211 211 192 163 183 195 211 221 208 200 196 190 187
143 145 154 153 152 151 149 147 146 143 142 141 139 139 140 141 141 139 143 143 149 152 153 155 159 162 171 187 215 232 238 231 182 187 202 214 227 228 215 206 202 198 194
143 142 149 153 153 153 152 150 148 146 144 142 141 143 144 145 148 147 146 149 158 162 162 163 169 182 198 216 243 257 256 244 191 202 219 226 237 230 221 212 207 204 203
137 139 140 148 153 155 154 153 151 147 145 144 144 145 147 150 152 153 156 164 168 175 183 194 207 229 245 254 262 270 267 246 181 217 239 231 234 230 222 214 215 212 211
132 135 134 135 139 145 152 158 152 151 151 149 150 152 152 154 157 160 159 173 190 212 227 231 242 252 269 277 276 276 280 286 251 242 246 241 241 236 227 220 219 219 222
145 145 144 146 145 144 149 158 157 156 152 149 151 150 145 130 131 155 193 223 237 249 252 260 272 269 270 280 278 274 283 246 244 248 247 250 245 238 229 225 221 220 225
164 165 163 157 153 147 157 147 140 142 137 136 132 138 129 119 125 126 12 301 291 288 290 294 292 295 288 284 281 281 267 248 243 248 249 253 248 242 238 232 228 226 229
165 168 174 167 157 154 148 138 130 126 127 132 136 134 127 115 91 53 37 341 335 332 325 329 333 316 300 280 276 270 258 255 246 249 257 259 258 257 252 245 238 236 235
163 173 170 166 157 158 146 142 140 141 146 161 163 146 136 141 162 190 187 273 291 287 294 310 308 305 309 296 277 269 266 260 257 258 261 265 265 263 260 254 249 245 241
167 174 174 169 167 165 157 158 155 164 168 172 169 168 158 169 198 218 238 267 278 283 289 298 297 305 307 302 288 274 270 265 266 263 268 273 275 274 274 267 256 249 246
174 179 177 173 171 162 164 169 169 174 174 167 179 185 175 181 192 192 223 255 268 267 275 281 293 296 293 295 295 284 276 268 265 268 272 282 281 280 281 276 263 257 252
177 175 177 175 166 166 171 180 172 175 171 177 189 193 186 183 187 181 191 233 259 262 277 294 326 323 318 313 297 288 278 274 270 267 270 280 289 290 287 285 274 262 257
167 169 176 178 167 172 172 171 168 178 181 189 188 197 194 188 179 171 192 239 256 268 335 316 342 341 328 320 301 289 285 278 275 270 270 277 285 291 297 295 288 273 262
172 170 171 175 173 175 170 164 169 176 180 187 175 189 194 184 174 166 194 231 242 53 9 329 3 331 307 314 299 285 288 283 284 282 281 290 295 299 302 305 301 294 276
157 163 170 176 171 162 158 152 157 158 177 161 159 189 167 175 157 144 177 237 111 86 1 342 317 318 288 304 307 314 304 302 307 304 296 312 325 326 318 314 311 308 308
154 163 173 175 179 164 163 168 172 187 186 169 175 168 131 123 124 131 144 57 59 107 308 311 311 345 342 340 351 337 326 327 333 326 328 330 343 337 334 335 329 323 320
167 173 180 184 181 179 180 171 162 150 151 154 152 103 130 131 138 151 150 161 69 75 28 10 27 18 346 14 26 348 330 330 334 330 332 332 336 342 347 341 334 329 320
178 182 180 183 181 177 166 129 104 87 75 79 73 5 329 127 148 161 157 129 97 119 185 293 73 102 321 338 24 162 222 274 310 307 309 329 332 335 333 326 326 323 317
182 165 166 163 159 161 155 150 150 156 171 193 190 199 306 4 169 151 125 125 122 136 188 318 86 126 148 279 311 258 219 221 243 299 307 311 317 315 316 318 315 313 313
155 141 139 136 139 142 144 152 151 160 171 159 137 130 86 358 342 67 99 113 121 149 284 35 53 72 117 206 237 252 259 252 228 240 288 307 317 303 293 292 296 300 305
140 139 135 125 131 138 145 148 152 164 166 153 159 161 163 270 304 352 81 92 134 196 262 279 193 101 203 222 238 221 214 231 235 222 255 285 297 296 293 279 270 280 285